Location: Killam
(52.7910°N, 111.8608°W)
Time: 06:51:18
(UTC+00:00)

Explorer 7 - All Passes

Search period start: 18 February 2026 00:00
Search period end: 28 February 2026 00:00
Orbit: 431 x 545 km, 50.2° (Epoch: 17 February)

Date Brightness Start Highest point End Pass type
(mag) Time Alt. Az. Time Alt. Az. Time Alt. Az.
18 Feb - 00:48:19 10° WSW 00:51:55 56° S 00:55:39 10° E daylight
18 Feb - 02:26:30 10° W 02:30:08 50° SSW 02:33:55 10° ESE visible
18 Feb - 04:05:06 10° W 04:08:07 22° SSW 04:11:11 10° SSE visible
18 Feb - 22:45:14 10° SSW 22:48:15 26° SSE 22:51:21 10° E daylight
19 Feb - 00:22:41 10° WSW 00:26:15 55° S 00:29:57 10° E daylight
19 Feb - 02:00:51 10° W 02:04:28 50° SSW 02:08:13 10° ESE visible
19 Feb - 03:39:26 10° W 03:42:26 22° SSW 03:45:31 10° SSE visible
19 Feb - 22:19:36 10° SSW 22:22:34 25° SSE 22:25:37 10° E daylight
19 Feb - 23:57:02 10° WSW 00:00:33 54° S 00:04:13 10° E daylight
20 Feb - 01:35:10 10° W 01:38:46 51° S 01:42:30 10° ESE visible
20 Feb - 03:13:44 10° W 03:16:45 23° SSW 03:19:50 10° SSE visible
20 Feb - 21:53:57 10° SSW 21:56:52 24° SSE 21:59:51 10° E daylight
20 Feb - 23:31:19 10° WSW 23:34:49 53° S 23:38:28 10° E daylight
21 Feb - 01:09:28 10° W 01:13:02 51° S 01:16:45 10° ESE daylight
21 Feb - 02:48:00 10° W 02:51:02 23° SSW 02:54:08 10° SSE visible
21 Feb - 21:28:16 10° SSW 21:31:08 23° SSE 21:34:04 10° E daylight
21 Feb - 23:05:36 10° WSW 23:09:05 53° S 23:12:42 10° E daylight
22 Feb - 00:43:44 10° W 00:47:17 52° S 00:50:58 10° ESE daylight
22 Feb - 02:22:15 10° W 02:25:16 23° SSW 02:28:23 10° SSE visible
22 Feb - 21:02:34 10° SSW 21:05:22 23° SSE 21:08:14 10° E daylight
22 Feb - 22:39:51 10° WSW 22:43:19 52° S 22:46:53 10° E daylight
23 Feb - 00:17:58 10° W 00:21:30 52° S 00:25:10 10° ESE daylight
23 Feb - 01:56:28 10° W 01:59:30 24° SSW 02:02:36 10° SSE visible
23 Feb - 20:36:50 10° SSW 20:39:35 22° SSE 20:42:24 10° E daylight
23 Feb - 22:14:04 10° WSW 22:17:30 51° S 22:21:04 10° E daylight
23 Feb - 23:52:11 10° W 23:55:41 52° S 23:59:20 10° ESE daylight
24 Feb - 01:30:40 10° W 01:33:42 24° SSW 01:36:49 10° SSE visible
24 Feb - 20:11:05 10° SSW 20:13:46 21° SSE 20:16:31 10° E daylight
24 Feb - 21:48:16 10° WSW 21:51:41 50° SSE 21:55:12 10° E daylight
24 Feb - 23:26:22 10° W 23:29:52 53° S 23:33:29 10° ESE daylight
25 Feb - 01:04:49 10° W 01:07:52 25° SSW 01:11:00 10° SSE daylight
25 Feb - 19:45:17 10° SSW 19:47:56 20° SSE 19:50:37 10° E daylight
25 Feb - 21:22:27 10° WSW 21:25:49 49° SSE 21:29:19 10° E daylight
25 Feb - 23:00:31 10° W 23:04:00 53° S 23:07:36 10° ESE daylight
26 Feb - 00:38:58 10° W 00:42:00 25° SSW 00:45:08 10° SSE daylight
26 Feb - 19:19:29 10° SSW 19:22:04 20° SSE 19:24:41 10° E daylight
26 Feb - 20:56:34 10° WSW 20:59:56 48° SSE 21:03:25 10° E daylight
26 Feb - 22:34:39 10° W 22:38:07 54° S 22:41:41 10° ESE daylight
27 Feb - 00:13:04 10° W 00:16:07 26° SSW 00:19:15 10° SSE daylight
27 Feb - 18:53:39 10° SSW 18:56:11 19° SSE 18:58:44 10° E daylight
27 Feb - 20:30:41 10° WSW 20:34:02 47° SSE 20:37:28 10° E daylight
27 Feb - 22:08:45 10° W 22:12:12 54° S 22:15:45 10° ESE daylight
27 Feb - 23:47:09 10° W 23:50:13 26° SSW 23:53:21 10° SSE daylight
